Location: Glion
(46.4330°N, 6.9246°E)
Time: 06:58:51
(UTC+00:00)

Meteor 1-5 Rocket - Pass Details

Date: 03 March 2021
Orbit: 790 x 914 km, 81.2° (Epoch: 14 April)

Event Time Altitude Azimuth Distance (km) Brightness Sun altitude
Rises 18:30:25 0° 172° (S) 3,285 7.2 -12.7°
Reaches altitude 10° 18:32:49 10° 167° (SSE) 2,369 6.4 -13.1°
Maximum altitude 18:37:56 48° 94° (E) 1,053 4.3 -14.0°
Drops below altitude 10° 18:43:13 10° 21° (NNE) 2,450 6.5 -14.9°
Sets 18:45:44 0° 16° (NNE) 3,408 7.3 -15.3°
